Location: Little Buffalo State Park
(40.4572°N, 77.1689°W)
Time: 17:32:34
(UTC-04:00)

Envisat - Visible Passes

Search period start: 17 October 2019 00:00
Search period end: 27 October 2019 00:00
Orbit: 764 x 766 km, 98.1° (Epoch: 17 October)

Date Brightness Start Highest point End Pass type
(mag) Time Alt. Az. Time Alt. Az. Time Alt. Az.
17 Oct 5.6 20:22:50 10° SW 20:26:33 21° W 20:30:20 10° NW visible
18 Oct 6.2 06:53:04 10° NE 06:56:09 16° E 06:59:13 10° SE visible
18 Oct 4.1 19:44:43 10° S 19:49:34 46° W 19:54:27 10° NNW visible
19 Oct 2.9 19:07:42 10° SSE 19:12:46 80° ENE 19:17:51 10° N visible
19 Oct 6.2 20:50:52 10° WSW 20:52:21 11° W 20:53:51 10° WNW visible
20 Oct 5.2 20:11:01 10° SSW 20:15:13 26° W 20:19:27 10° NW visible
21 Oct 6.5 06:42:42 10° ENE 06:44:46 12° E 06:46:49 10° ESE visible
21 Oct 3.6 19:33:16 10° S 19:38:16 59° W 19:43:18 10° NNW visible
22 Oct 3.0 18:56:32 10° SSE 19:01:31 63° ENE 19:06:33 10° N visible
22 Oct 6.0 20:38:11 10° SW 20:40:57 15° W 20:43:45 10° WNW visible
23 Oct 4.8 19:59:20 10° SSW 20:03:52 33° W 20:08:27 10° NNW visible
24 Oct 3.2 19:21:56 10° S 19:26:59 75° WSW 19:32:05 10° NNW visible
25 Oct 3.2 18:45:26 10° SE 18:50:18 49° ENE 18:55:12 10° N visible
25 Oct 5.7 20:26:03 10° SW 20:29:35 19° W 20:33:07 10° NW visible
26 Oct 6.1 06:55:48 10° NE 06:59:11 18° E 07:02:31 10° SE visible
26 Oct 4.3 19:47:46 10° SSW 19:52:33 42° W 19:57:22 10° NNW visible
